Погода в Литвиновке

Россия / Ростовская область     48°23′34″N   40°53′14″E
темп.,
°C
ветер,
м/с
пор.,
м/с
влажн.,
%
обл.,
%
осадки,
мм/ч
давл.,
гПа
погр.,
м
13 апреля, вт
вт1300:00+12вюв237621 0.0 102352
03:00+11в4117394 0.0 1023250
06:00+11в41278100 0.6 1022320
09:00+14вюв6115650 0.6 1023678
12:00+18юв7115218 0.0 10221271
15:00+19юв71047100 0.0 10221652
18:00+17юв2354100 0.0 102138
21:00+14в226092 0.0 102119
14 апреля, ср
ср1400:00+11вюв34575 0.0 102069
03:00+10вюв3465100 0.0 101977
06:00+10вюв227592 0.0 101949
09:00+14юв3466100 0.0 1019439
12:00+18вюв5833100 0.0 10181751
15:00+19вюв563597 0.0 10161589
18:00+16ююз3456100 0.0 101686
21:00+14зсз3363100 0.0 101656
15 апреля, чт
чт1500:00+13с2263100 0.0 101533
03:00+12ю1167100 0.0 101511
06:00+12ссз1171100 0.0 101516
09:00+15зсз235785 0.0 1015631
12:00+17зюз435580 0.1 10151144
15:00+19юз234239 0.1 10142030
18:00+17з234981 0.0 101470
21:00+14зюз366022 0.0 1014141
16 апреля, пт
пт1600:00+11зюз387594 0.0 1015173
03:00+11з22775 0.0 101526
06:00+9зюз348681 0.0 101680
09:00+13з336980 0.0 1016511
12:00+16юз23535 0.0 10151480
15:00+18ююз3341100 0.0 10152226
18:00+13зюз7867100 0.0 1016469
21:00+10зюз6889100 2.1 1017285
17 апреля, сб
сб1700:00+10з3389100 3.8 1017372
03:00+10з2388100 4.0 1017333
06:00+9з469098 0.4 1017445
09:00+10зсз3477100 0.4 1018549
12:00+9ссз348138 2.1 1020356
15:00+13з335641 2.9 10191298
18:00+13зсз23605 0.6 1020891
21:00+9ссз22745 0.7 102118